Location: Rounton
(54.4000°N, 1.3500°W)
Time: 20:43:12
(UTC+01:00)

YAOGAN 20A - Pass Details

Date: 02 July 2022
Orbit: 891 x 1288 km, 63.4° (Epoch: 18 August)

Event Time Altitude Azimuth Distance (km) Brightness Sun altitude
Rises 01:47:44 0° 311° (NW) 3,836 8.5 -12.1°
Reaches altitude 10° 01:50:19 10° 307° (NW) 2,934 7.8 -12.1°
Maximum altitude 01:57:08 55° 233° (SW) 1,371 5.4 -11.9°
Drops below altitude 10° 02:04:33 10° 158° (SSE) 3,188 7.1 -11.6°
Enters shadow 02:05:44 - 156° (SSE) 3,590 7.4 -11.6°
